Temp
12 12 12 12 12 12 12 11 11 11 11 11 11 11 11 11 11 10 10 10 10 10 10 10 10 10 10 10 11 11 10 10 10 10 10 10 10 10 10 10 10 10 9
12 12 11 11 11 11 11 11 11 11 11 11 10 10 10 10 10 10 10 10 10 10 10 10 10 10 10 10 10 11 10 10 10 10 10 10 10 10 10 10 10 10 9
11 11 11 11 11 11 11 11 11 11 11 11 10 10 10 10 10 10 10 10 10 10 10 10 10 10 10 10 10 10 10 10 10 10 10 10 10 10 10 10 9 9 9
11 11 11 11 11 11 11 11 10 10 10 10 10 10 10 10 10 10 10 10 10 10 10 10 9 9 9 10 10 10 10 9 9 9 9 9 9 9 9 9 9 9 9
11 11 10 10 10 11 11 10 10 10 10 10 10 10 10 10 9 9 9 9 9 9 9 9 9 9 9 9 9 9 9 9 9 9 9 9 9 8 8 8 8 8 8
10 10 10 10 10 10 10 10 10 10 10 10 10 10 10 10 9 9 9 9 9 9 9 8 8 8 9 9 8 9 9 8 8 8 8 8 8 8 8 8 8 8 8
11 10 10 10 10 10 10 10 10 10 10 10 10 9 9 9 9 9 9 8 8 8 8 8 8 8 8 8 8 8 7 7 8 8 8 8 8 8 8 7 7 7 7
10 10 10 10 10 10 10 10 10 9 9 9 9 9 9 9 9 9 9 8 8 8 8 8 8 7 7 7 7 7 7 7 7 7 7 7 7 7 7 7 7 7 7
10 10 10 10 10 10 10 10 9 9 9 9 9 9 9 8 8 8 8 8 8 7 7 7 7 7 7 7 7 7 7 7 7 7 7 7 7 7 7 7 7 7 7
10 9 10 9 9 9 9 9 9 9 9 9 9 9 8 8 8 8 8 8 7 7 7 7 7 7 7 7 7 6 7 6 6 6 7 6 7 7 7 7 7 6 6
9 9 9 9 9 9 9 9 9 9 9 9 9 8 8 8 8 8 7 7 7 7 7 7 7 6 6 6 6 6 6 6 6 6 7 6 6 6 6 6 6 6 6
9 9 9 9 9 9 9 9 9 9 9 8 8 8 8 8 8 8 7 7 7 7 6 6 6 6 6 6 6 6 6 6 6 6 7 6 6 6 6 6 6 7 6
9 9 9 9 8 8 8 9 9 8 9 8 8 8 8 8 7 7 7 7 7 6 6 6 6 6 6 6 6 6 6 6 6 6 7 6 6 6 7 6 7 7 7
8 8 8 8 8 8 8 8 8 8 8 8 8 8 8 8 7 7 7 7 7 6 6 6 6 6 6 6 6 6 6 6 6 6 7 6 6 6 6 7 6 6 6
8 8 8 7 8 7 8 8 8 8 7 8 8 8 7 7 7 7 7 7 6 6 6 6 6 6 6 6 5 5 6 6 6 6 6 6 6 6 6 6 6 6 6
8 7 7 7 7 7 7 7 7 7 8 8 8 8 7 7 7 7 7 6 6 6 6 6 6 5 5 5 5 6 6 6 6 6 6 6 6 6 6 6 6 6 6
7 7 7 7 7 7 7 7 7 7 7 7 7 7 7 7 7 7 6 6 6 6 6 5 5 5 5 5 5 5 6 5 5 6 6 6 6 6 6 6 6 6 6
7 6 6 6 6 7 6 6 7 7 6 6 6 7 7 7 7 6 6 6 6 6 6 5 5 5 5 5 5 5 5 5 5 5 5 5 5 6 5 5 6 6 6
6 7 6 7 6 6 7 6 6 6 6 6 6 6 6 6 6 6 6 6 6 6 5 5 5 5 5 5 5 5 5 5 5 5 5 5 5 5 5 5 5 5 5
6 6 6 6 7 6 6 6 6 6 6 6 6 6 6 6 6 6 6 6 6 5 5 5 4 5 5 4 4 4 4 4 4 4 5 4 4 4 4 5 5 5 5
6 6 6 6 7 7 6 6 6 6 6 6 5 5 5 5 5 6 6 5 5 4 4 4 4 4 4 4 3 4 4 4 4 4 4 4 4 4 4 4 4 4 4
7 6 6 6 6 6 6 6 6 6 6 5 5 5 5 5 5 5 5 4 4 4 4 4 4 3 3 3 3 3 3 3 4 3 3 3 3 3 3 3 3 3 3
7 6 6 6 6 6 6 6 6 6 5 5 5 5 5 5 5 5 4 3 3 3 3 3 3 3 3 3 2 2 3 3 3 3 3 2 2 2 2 2 2 2 1
6 6 5 6 6 5 5 6 6 6 5 5 5 4 4 5 3 2 3 3 3 3 3 2 2 2 2 2 2 2 2 2 2 2 2 2 2 2 2 2 1 0 0
5 5 6 5 6 5 5 5 6 5 5 5 5 4 3 3 2 3 2 2 3 2 2 2 2 2 2 2 2 2 2 2 2 2 2 2 2 2 2 2 1 1 1
5 4 6 5 5 5 5 5 5 5 6 5 5 4 5 3 2 2 2 2 2 2 2 2 2 2 1 1 1 1 1 1 1 1 1 1 1 1 1 0 0 0 0
Height
3146 3147 3146 3146 3146 3145 3144 3143 3142 3141 3141 3140 3140 3138 3137 3137 3136 3135 3134 3134 3135 3135 3136 3137 3137 3137 3138 3138 3139 3141 3142 3142 3143 3144 3144 3144 3145 3145 3144 3145 3146 3144 3145
3145 3146 3146 3146 3145 3145 3144 3144 3143 3142 3141 3140 3140 3139 3138 3137 3137 3135 3134 3135 3135 3135 3136 3137 3137 3137 3138 3138 3139 3140 3141 3141 3142 3142 3143 3143 3143 3143 3143 3143 3143 3143 3143
3145 3145 3146 3146 3145 3145 3144 3144 3143 3142 3142 3140 3139 3138 3137 3136 3136 3135 3135 3135 3135 3135 3136 3137 3137 3137 3138 3139 3139 3140 3140 3141 3142 3141 3142 3142 3142 3142 3141 3141 3141 3140 3141
3144 3145 3145 3145 3145 3145 3144 3145 3144 3144 3142 3141 3139 3138 3137 3136 3136 3135 3135 3135 3135 3136 3137 3137 3137 3137 3138 3138 3138 3139 3139 3140 3140 3140 3140 3140 3139 3140 3139 3139 3139 3138 3138
3143 3144 3144 3145 3145 3145 3144 3144 3145 3144 3143 3142 3140 3139 3137 3136 3136 3135 3135 3136 3136 3136 3136 3136 3137 3136 3137 3137 3138 3138 3138 3138 3138 3138 3138 3137 3137 3137 3137 3137 3137 3136 3136
3142 3142 3143 3144 3144 3145 3144 3143 3144 3144 3144 3143 3141 3139 3138 3137 3136 3135 3135 3135 3136 3136 3136 3136 3136 3136 3137 3137 3137 3137 3137 3137 3137 3136 3136 3136 3135 3135 3135 3135 3134 3134 3133
3140 3141 3141 3142 3143 3144 3144 3143 3143 3143 3143 3143 3141 3140 3139 3138 3136 3135 3135 3135 3135 3135 3135 3136 3136 3136 3136 3136 3136 3136 3136 3136 3136 3136 3135 3135 3134 3134 3133 3132 3132 3131 3131
3139 3139 3140 3141 3141 3141 3142 3142 3142 3142 3143 3142 3141 3140 3140 3139 3138 3137 3136 3136 3135 3135 3135 3135 3136 3135 3136 3136 3136 3136 3136 3135 3135 3134 3134 3132 3133 3132 3131 3130 3130 3130 3129
3137 3138 3139 3139 3140 3140 3140 3142 3141 3142 3142 3142 3141 3141 3140 3139 3138 3138 3137 3136 3136 3136 3136 3136 3135 3135 3136 3136 3135 3135 3134 3134 3133 3132 3131 3130 3130 3129 3128 3128 3127 3128 3127
3135 3136 3137 3137 3138 3140 3139 3140 3141 3141 3141 3141 3141 3141 3140 3139 3139 3138 3137 3137 3137 3136 3136 3136 3135 3135 3135 3135 3134 3134 3133 3132 3131 3130 3129 3129 3127 3126 3125 3124 3125 3125 3124
3132 3133 3134 3135 3136 3138 3138 3138 3139 3140 3140 3140 3140 3140 3140 3140 3139 3138 3138 3137 3137 3137 3136 3135 3135 3134 3134 3133 3132 3132 3131 3130 3129 3127 3125 3125 3124 3122 3121 3121 3121 3119 3119
3128 3130 3131 3132 3133 3134 3136 3137 3137 3138 3138 3138 3139 3139 3139 3139 3139 3138 3137 3137 3136 3136 3135 3134 3133 3132 3132 3130 3130 3129 3128 3127 3125 3123 3122 3121 3120 3119 3117 3117 3115 3115 3115
3124 3126 3127 3128 3129 3130 3132 3134 3136 3136 3136 3136 3136 3137 3137 3137 3138 3137 3137 3136 3135 3134 3133 3132 3131 3130 3129 3128 3127 3126 3126 3124 3122 3119 3120 3117 3116 3115 3113 3112 3112 3112 3111
3121 3122 3123 3124 3126 3127 3128 3130 3132 3133 3133 3133 3134 3134 3135 3135 3136 3135 3135 3134 3133 3132 3132 3130 3129 3128 3126 3125 3124 3123 3122 3120 3118 3116 3116 3114 3113 3112 3111 3109 3108 3108 3107
3117 3118 3119 3120 3122 3123 3124 3126 3128 3129 3131 3130 3131 3132 3132 3132 3132 3132 3132 3132 3131 3130 3129 3128 3127 3125 3123 3122 3121 3119 3118 3116 3114 3112 3112 3110 3109 3108 3108 3106 3105 3104 3103
3113 3114 3115 3117 3118 3119 3121 3122 3123 3125 3126 3125 3128 3128 3129 3128 3129 3129 3129 3129 3128 3127 3127 3125 3123 3122 3120 3119 3118 3115 3113 3112 3110 3108 3107 3107 3105 3105 3104 3103 3101 3100 3099
3109 3110 3110 3112 3114 3116 3117 3118 3119 3121 3120 3122 3124 3124 3125 3124 3125 3125 3126 3126 3125 3124 3123 3122 3120 3118 3117 3115 3113 3111 3109 3108 3106 3105 3103 3102 3101 3100 3100 3098 3096 3095 3094
3103 3104 3104 3105 3108 3110 3113 3113 3115 3115 3116 3119 3119 3120 3120 3121 3121 3121 3121 3122 3121 3120 3120 3118 3117 3115 3113 3111 3109 3107 3105 3104 3102 3101 3099 3098 3096 3095 3094 3092 3090 3089 3087
3096 3097 3098 3100 3103 3105 3108 3109 3110 3110 3111 3113 3114 3115 3116 3116 3116 3117 3118 3117 3117 3117 3116 3115 3113 3110 3108 3106 3105 3103 3101 3100 3098 3097 3095 3093 3092 3090 3088 3087 3085 3083 3080
3087 3088 3091 3092 3097 3099 3100 3102 3104 3104 3105 3107 3109 3110 3111 3111 3112 3112 3112 3112 3112 3112 3111 3110 3109 3107 3104 3102 3101 3099 3098 3096 3094 3092 3090 3088 3086 3084 3082 3080 3078 3075 3073
3075 3078 3082 3085 3088 3091 3093 3095 3097 3098 3099 3102 3103 3104 3105 3106 3107 3107 3107 3107 3107 3107 3107 3106 3105 3103 3101 3099 3097 3095 3093 3091 3089 3087 3085 3082 3080 3078 3075 3072 3070 3067 3064
3064 3068 3072 3076 3079 3083 3084 3089 3089 3091 3093 3096 3098 3099 3099 3100 3101 3101 3101 3102 3102 3102 3103 3102 3101 3099 3097 3095 3093 3091 3088 3085 3085 3082 3079 3077 3074 3070 3067 3064 3061 3057 3054
3052 3056 3061 3066 3070 3075 3076 3080 3082 3085 3086 3089 3091 3093 3093 3094 3095 3096 3096 3097 3098 3098 3098 3098 3097 3095 3094 3092 3088 3086 3082 3080 3078 3075 3073 3070 3067 3064 3060 3057 3053 3049 3045
3043 3045 3051 3056 3060 3066 3067 3072 3077 3079 3081 3082 3085 3086 3087 3088 3090 3091 3092 3093 3094 3094 3094 3093 3093 3091 3089 3087 3084 3082 3078 3074 3070 3068 3066 3061 3058 3056 3051 3049 3046 3042 3038
3032 3034 3039 3046 3051 3056 3059 3065 3069 3071 3073 3076 3078 3079 3081 3082 3084 3086 3088 3089 3089 3089 3089 3089 3088 3087 3085 3082 3079 3075 3072 3067 3063 3059 3057 3055 3049 3045 3040 3035 3033 3029 3025
3020 3023 3026 3035 3043 3045 3053 3059 3061 3063 3068 3071 3072 3074 3074 3078 3079 3081 3083 3085 3085 3085 3085 3084 3084 3082 3080 3077 3073 3070 3066 3062 3056 3050 3045 3043 3039 3037 3030 3025 3023 3018 3014
Wind_Speed
6 4 1 4 8 8 7 7 7 7 7 8 7 7 7 7 6 6 5 3 3 4 4 4 5 4 5 7 8 8 9 10 10 11 11 12 12 13 13 13 14 15 13
9 5 2 3 7 7 5 6 6 7 7 7 7 7 6 6 5 5 2 3 4 4 5 5 4 3 3 4 5 8 9 9 10 11 12 13 14 15 15 14 14 15 14
10 7 3 2 6 4 5 5 6 7 8 8 7 8 8 7 6 5 3 4 4 5 5 4 4 3 3 4 5 6 8 8 10 12 13 15 15 17 16 16 16 17 16
11 7 3 2 3 2 3 5 5 6 7 8 9 7 7 7 6 5 4 4 4 4 5 4 4 4 4 6 7 8 9 10 11 13 14 15 16 16 17 17 18 18 18
9 7 4 3 3 3 1 1 4 6 7 8 8 8 7 5 5 5 4 4 5 5 5 5 5 5 7 7 8 10 11 12 12 13 14 15 16 15 16 15 15 15 15
11 8 5 10 7 5 3 1 2 5 7 9 9 9 9 8 4 4 4 4 5 5 5 5 6 6 7 8 8 10 11 11 13 13 13 14 14 14 15 15 14 15 15
17 16 13 12 9 7 5 3 2 3 6 7 9 9 9 8 6 3 3 3 3 3 3 4 4 5 6 6 8 8 9 10 12 13 14 14 14 14 15 14 15 14 15
18 20 16 14 12 11 9 7 5 5 5 6 8 9 9 8 8 6 3 2 3 3 4 4 5 6 7 8 8 9 9 10 12 12 13 15 14 15 16 16 16 17 16
24 21 20 16 15 14 12 10 8 7 6 7 7 8 9 9 8 7 5 4 4 5 5 6 7 8 10 10 11 11 12 12 13 14 15 15 15 16 17 17 17 17 17
20 20 21 19 18 17 14 13 11 10 8 8 8 8 9 9 8 8 7 7 6 6 7 8 8 9 10 12 12 13 13 14 14 15 17 16 18 18 19 21 20 20 21
21 21 21 21 20 20 18 16 14 12 12 10 10 10 10 10 9 9 8 8 8 9 9 9 10 11 12 13 14 15 16 17 18 18 20 20 21 22 23 22 21 22 23
22 22 22 22 23 24 21 17 17 15 15 14 13 12 11 11 11 12 11 11 10 10 11 12 12 13 15 15 16 17 18 19 20 21 21 22 23 24 24 22 23 23 22
24 23 22 22 23 24 22 23 23 21 20 19 16 16 14 13 13 13 13 14 13 14 13 14 15 15 16 18 19 20 20 21 22 23 20 23 24 24 20 18 19 18 19
27 26 24 24 23 24 25 25 30 24 24 21 20 18 17 16 15 15 16 16 16 16 17 17 17 18 18 19 20 21 22 22 23 24 20 19 17 19 18 19 18 18 20
31 30 28 24 23 21 22 24 27 26 26 22 22 21 22 19 18 18 17 18 17 18 18 19 20 20 20 20 21 22 23 23 23 21 17 18 17 17 18 18 18 19 20
32 32 30 27 25 22 21 19 21 21 25 24 25 24 25 23 21 20 19 19 19 20 20 20 20 21 22 22 22 23 23 22 20 19 19 17 16 17 18 20 20 22 23
34 34 33 33 30 28 25 23 23 26 24 23 23 23 24 25 23 22 21 21 20 21 21 21 21 22 22 23 23 23 21 19 18 18 18 17 17 19 20 21 22 24 26
38 36 35 36 33 33 27 28 28 28 27 24 26 25 26 26 25 23 22 22 21 22 21 21 22 22 24 23 22 20 18 18 18 19 18 19 20 21 22 24 26 27 29
40 42 39 37 34 33 32 31 30 33 32 29 30 29 29 28 27 26 24 23 22 21 20 20 21 23 23 22 20 19 19 19 19 20 20 21 22 24 25 26 28 30 32
45 46 44 43 38 34 34 33 32 34 35 34 33 33 32 32 29 26 25 23 21 20 19 19 20 21 21 21 21 21 20 21 21 22 24 24 25 27 28 29 32 34 35
56 54 52 49 45 41 39 36 33 33 33 32 33 34 34 33 28 26 24 22 20 18 17 18 18 18 20 22 22 23 23 24 25 25 26 27 29 30 31 33 35 37 39
54 57 56 53 51 46 45 38 34 32 30 32 33 33 32 32 29 26 22 20 18 17 16 15 16 16 19 21 23 24 25 28 25 27 28 29 30 33 35 36 38 40 42
47 53 57 56 53 49 48 43 36 33 32 35 34 33 33 31 28 25 21 19 18 16 14 13 14 16 19 20 23 25 27 27 28 29 29 31 32 34 36 38 39 40 41
44 50 52 56 55 51 50 43 35 33 33 32 30 30 32 31 25 23 22 19 17 14 13 13 14 17 20 23 25 27 28 30 31 32 32 34 36 37 39 39 37 36 38
41 47 49 51 53 51 49 40 34 35 35 34 30 30 30 26 30 25 23 20 17 15 14 15 17 19 22 26 28 31 33 33 34 35 35 35 39 41 44 46 44 43 42
44 46 50 48 48 50 43 36 36 37 35 33 33 32 29 30 24 26 23 20 18 16 16 17 20 23 26 29 32 34 35 36 37 39 42 42 43 42 44 45 44 45 46
Wind_Direction
238 232 231 346 357 4 1 5 6 6 356 342 336 333 328 322 319 289 283 259 216 197 209 212 212 213 216 213 229 230 232 238 244 252 261 270 276 278 278 283 288 290 297
222 227 252 335 343 352 358 2 8 8 4 352 336 324 319 316 312 303 276 216 208 198 212 211 218 224 227 224 225 230 234 239 247 257 265 272 276 278 281 283 285 289 288
221 214 227 320 327 343 354 2 4 13 11 7 348 330 322 319 316 297 266 222 208 209 218 216 222 231 242 249 247 245 249 250 254 261 268 273 277 283 287 290 289 288 285
212 206 200 245 271 314 346 349 350 356 6 7 10 348 324 310 301 296 276 260 240 232 237 235 237 245 252 258 262 264 264 265 266 269 275 278 281 284 287 287 286 287 287
202 196 183 228 245 242 232 17 337 348 357 6 10 5 353 321 298 287 277 259 250 243 244 251 249 247 251 256 261 266 271 274 276 278 279 282 284 290 289 287 286 285 282
194 192 233 267 248 240 227 172 334 337 350 359 6 7 9 3 323 288 269 267 269 257 251 261 268 272 273 275 277 278 280 282 283 282 284 286 287 288 286 284 285 285 282
237 244 256 242 228 240 245 244 271 312 339 352 2 9 10 11 7 318 290 283 276 291 307 306 298 298 296 290 284 282 282 286 285 287 288 287 286 284 281 283 282 279 279
241 251 244 225 225 230 238 245 258 287 313 340 358 7 9 12 13 19 32 3 353 345 338 329 323 322 315 308 301 300 302 301 297 294 295 293 300 291 288 286 284 284 282
237 238 228 227 231 235 241 247 254 269 287 314 339 356 4 5 5 7 13 18 10 357 346 333 329 325 316 309 310 307 304 301 298 301 300 298 295 294 293 291 290 290 288
231 236 240 240 241 244 238 246 254 262 273 292 314 332 347 357 358 352 346 343 339 331 323 322 320 315 314 312 310 306 304 300 297 296 292 296 292 292 291 290 291 291 287
231 236 243 248 247 256 248 245 251 258 267 277 291 306 322 334 341 342 336 330 319 314 312 313 312 312 310 311 308 305 303 301 297 293 290 291 291 290 288 291 294 287 283
229 235 240 245 246 246 252 255 251 252 260 263 272 286 298 309 320 326 327 326 320 312 309 307 309 311 310 313 308 305 302 298 295 293 295 293 293 290 292 295 288 288 288
230 234 239 242 246 248 245 245 260 261 256 261 264 274 285 295 302 308 314 318 320 315 308 305 308 310 313 313 310 306 300 297 294 293 295 293 292 292 295 293 293 295 290
234 237 238 240 242 245 242 241 246 254 260 261 265 267 275 283 290 297 303 307 313 312 307 307 308 308 310 307 305 302 300 297 295 293 297 289 290 293 295 294 296 295 293
238 239 241 239 240 242 243 240 249 247 264 263 266 268 270 275 283 289 298 299 302 302 303 303 303 305 307 305 302 300 299 297 294 292 294 291 292 294 296 296 297 297 296
242 243 241 239 238 238 241 244 248 245 256 265 271 265 267 271 276 286 290 294 295 293 296 297 299 302 303 300 301 301 299 296 292 291 292 292 295 297 296 297 296 296 295
240 244 243 240 239 241 245 246 247 252 256 259 262 264 266 268 273 278 286 290 289 284 290 293 296 297 299 300 301 299 296 292 290 289 291 293 296 296 296 296 296 297 296
234 238 240 242 242 242 241 249 252 258 260 259 263 267 270 270 270 274 282 285 282 282 285 289 292 296 299 301 302 299 294 291 292 292 294 297 298 296 296 299 298 298 298
233 237 243 246 246 251 250 250 255 256 257 259 262 266 269 270 269 269 275 280 278 278 279 284 291 297 301 304 304 300 297 294 294 295 295 296 296 296 297 297 298 299 299
231 238 239 245 245 248 253 254 262 261 255 255 262 265 267 268 268 270 272 274 271 270 275 284 292 299 305 310 308 303 299 297 296 296 296 296 295 295 296 297 299 299 298
234 237 239 242 245 247 250 255 260 261 254 254 258 264 268 268 268 267 267 265 263 265 273 284 293 304 312 312 311 307 302 301 298 296 295 295 295 295 296 298 298 297 296
239 238 239 239 243 245 248 253 256 253 249 252 259 263 265 265 262 260 260 254 254 260 272 286 299 312 317 316 314 310 306 301 293 293 293 294 295 297 297 299 299 298 297
241 240 238 238 241 243 247 248 252 250 244 253 255 259 264 261 260 261 255 244 247 257 272 290 306 315 318 322 322 318 313 307 303 298 296 295 295 296 296 297 297 296 295
242 244 237 237 239 240 245 249 251 249 248 251 254 257 262 259 258 253 248 239 245 257 271 288 303 311 319 322 322 320 317 312 308 303 302 300 299 299 296 295 294 292 291
234 239 238 236 237 238 242 245 245 238 239 243 246 251 255 249 250 249 240 236 245 255 269 286 297 307 314 320 321 321 319 315 310 306 302 301 302 304 303 302 302 301 301
228 229 236 232 233 235 237 239 238 233 240 247 250 251 251 235 242 244 232 235 244 256 272 286 296 305 311 316 319 320 318 315 311 309 307 307 305 305 303 304 304 303 301